Powrót do katalogu

SINAH 1

AktywnyNaukaSSO
NORAD 28893·PAYLOAD·🇮🇷 Iran

Wystrzelony Oct 27, 2005 z Plesetsk Cosmodrome

Loading…

Następne Przeloty (najbliższe 24 godziny)

TLE

ŚwieżeSource: Space-Track

Epoka: Sep 14, 2026, 13:50 UTC

1 28893U 05043D   26257.57694825  .00000214  00000-0  50060-4 0  9992
2 28893  98.2988  32.4882 0014355   1.6921 358.4327 14.64208811113608

Śledź SINAH 1 w czasie rzeczywistym z AllMySat

Download on the App Store